Billings, MT

1:36 AM MDT on May 23, 2017 (GMT -0600)
Billings Logan International

Weather History for KBIL - March, 2015

Change the Weather History Date:

Sunday, March 8, 2015

  Actual Average Record
Temperature  
Mean Temperature 43 °F 36 °F  
Max Temperature 60 °F 46 °F 66 °F (2004)
Min Temperature 26 °F 25 °F -16 °F (1951)
Degree Days  
Heating Degree Days 22 29  
Month to date heating degree days 263 243  
Since 1 July heating degree days 4904 5208  
Cooling Degree Days 0 0  
Month to date cooling degree days 0 0  
Year to date cooling degree days 0 0  
Moisture  
Dew Point 23 °F    
Average Humidity 52    
Maximum Humidity 85    
Minimum Humidity 19    
Precipitation  
Precipitation 0.00 in 0.02 in 0.44 in (1987)
Month to date precipitation 0.09 0.20  
Year to date precipitation 1.39 1.16  
Snow  
Snow 0.00 in 0.30 in 7.70 in (2003)
Month to date snowfall 3.1 2.4  
Since 1 July snowfall 47.2 36.9  
Snow Depth 0.00 in    
Sea Level Pressure  
Sea Level Pressure 30.07 in    
Wind  
Wind Speed 12 mph (SW)    
Max Wind Speed 22 mph    
Max Gust Speed 28 mph    
Visibility 10 miles    
Events      
T = Trace of Precipitation, MM = Missing Value Source: NWS Daily Summary

Daily Weather History Graph

Daily Weather History Graph

Search for Another Location

Airport or City:

Trip Planner

Search our weather history database for the weather conditions in past years. The results will help you decide how hot, cold, wet, or windy it might be!

Date:

Astronomy

Mar. 08, 2015 Rise Set
Actual Time 7:40 AM MDT 7:10 PM MDT
Civil Twilight 7:10 AM MDT 7:40 PM MDT
Nautical Twilight 6:36 AM MDT 8:14 PM MDT
Astronomical Twilight 6:01 AM MDT 8:49 PM MDT
Moon 10:20 PM MDT (3/8) 8:52 AM MDT (3/8)
Length of Visible Light 12h 29m
Length of Day
11h 30m
Waning Gibbous, 92% of the Moon is Illuminated
Mar 8
Waning Gibbous
Mar 13
Last Quarter
Mar 20
New
Mar 27
First Quarter
Apr 4
Full

Hourly Weather History & Observations

Time (MDT) Temp. Windchill Dew Point Humidity Pressure Visibility Wind Dir Wind Speed Gust Speed Precip Events Conditions
12:53 AM 36.0 °F 28.5 °F 26.1 °F 67% 30.16 in 10.0 mi SW 10.4 mph - N/A   Partly Cloudy
1:53 AM 35.1 °F 27.4 °F 26.1 °F 70% 30.16 in 10.0 mi SW 10.4 mph - N/A   Partly Cloudy
3:53 AM 32.0 °F 23.6 °F 26.1 °F 79% 30.16 in 10.0 mi SW 10.4 mph - N/A   Partly Cloudy
4:53 AM 33.1 °F 23.4 °F 25.0 °F 72% 30.15 in 10.0 mi WSW 13.8 mph - N/A   Scattered Clouds
5:53 AM 30.0 °F 20.0 °F 23.0 °F 75% 30.15 in 10.0 mi SW 12.7 mph - N/A   Partly Cloudy
6:53 AM 28.0 °F 17.5 °F 23.0 °F 81% 30.16 in 10.0 mi SW 12.7 mph - N/A   Partly Cloudy
7:53 AM 28.9 °F 18.6 °F 24.1 °F 82% 30.16 in 10.0 mi SW 12.7 mph - N/A   Partly Cloudy
8:53 AM 30.9 °F 19.8 °F 24.1 °F 76% 30.16 in 10.0 mi SW 16.1 mph - N/A   Partly Cloudy
9:53 AM 37.9 °F 29.6 °F 26.1 °F 62% 30.16 in 10.0 mi WSW 13.8 mph - N/A   Clear
10:53 AM 45.0 °F 37.9 °F 26.1 °F 48% 30.14 in 10.0 mi SW 16.1 mph - N/A   Partly Cloudy
11:53 AM 50.0 °F - 25.0 °F 38% 30.12 in 10.0 mi WSW 10.4 mph - N/A   Partly Cloudy
12:53 PM 53.1 °F - 24.1 °F 32% 30.09 in 10.0 mi WSW 10.4 mph - N/A   Partly Cloudy
1:53 PM 55.9 °F - 21.9 °F 27% 30.05 in 10.0 mi SW 11.5 mph 19.6 mph N/A   Partly Cloudy
2:53 PM 59.0 °F - 17.1 °F 20% 30.01 in 10.0 mi WSW 17.3 mph 27.6 mph N/A   Partly Cloudy
3:53 PM 57.0 °F - 21.0 °F 25% 29.99 in 10.0 mi SSW 10.4 mph - N/A   Partly Cloudy
4:53 PM 57.0 °F - 21.0 °F 25% 29.97 in 10.0 mi SW 15.0 mph - N/A   Partly Cloudy
5:53 PM 57.0 °F - 21.0 °F 25% 29.97 in 10.0 mi WSW 13.8 mph - N/A   Partly Cloudy
6:53 PM 54.0 °F - 19.9 °F 26% 29.98 in 10.0 mi WSW 9.2 mph - N/A   Partly Cloudy
7:53 PM 50.0 °F - 21.0 °F 32% 29.99 in 10.0 mi West 10.4 mph - N/A   Partly Cloudy
8:53 PM 48.0 °F - 21.9 °F 36% 29.99 in 10.0 mi SW 9.2 mph - N/A   Clear
9:53 PM 46.0 °F 41.4 °F 23.0 °F 40% 29.97 in 10.0 mi WSW 9.2 mph - N/A   Clear
10:53 PM 46.9 °F - 21.9 °F 37% 29.96 in 10.0 mi WSW 12.7 mph - N/A   Clear
11:53 PM 39.9 °F 32.5 °F 23.0 °F 51% 29.97 in 10.0 mi WNW 12.7 mph - N/A   Clear
12:53 AM 39.9 °F 34.5 °F 23.0 °F 51% 29.97 in 10.0 mi SSW 8.1 mph - N/A   Clear